When you browse on this site, cookies collect data to enhance your experience and personalize the content and advertising you see.
Visit our Privacy Policy to learn more. By continuing to use the site, you agree to this use of cookies and data.
  • In Deutschland
  • Länderverzeichnis
  • Für 7 Tage
  • Wassertemperatur
  • Satellitenkarten
  • Wetterkarte
  • Widgets
  • user-avatar
    Anmelden

    Stündliche Wetter Namibe

    Heute, 20 Januar, Sonntag

    Zeit Temperatur Niederschläge Wind Luftdruck Luftfeuchtigkeit
    00:00 +26°C° 0 mm 1 m/S 759 mmHg 76%
    01:00 +23°C° 0 mm 0 m/S 759 mmHg 77%
    02:00 +24°C° 0.3 mm 0 m/S 759 mmHg 77%
    03:00 +26°C° 0.3 mm 1 m/S 759 mmHg 76%
    04:00 +26°C° 0.3 mm 1 m/S 759 mmHg 76%
    05:00 +26°C° 0.2 mm 1 m/S 759 mmHg 74%
    06:00 +27°C° 0.2 mm 1 m/S 759 mmHg 72%
    07:00 +25°C° 0 mm 0 m/S 759 mmHg 69%
    08:00 +28°C° 0 mm 1 m/S 759 mmHg 63%
    09:00 +30°C° 0 mm 2 m/S 759 mmHg 56%
    10:00 +31°C° 0 mm 3 m/S 759 mmHg 49%
    11:00 +33°C° 0 mm 3 m/S 759 mmHg 48%
    12:00 +33°C° 0 mm 4 m/S 758 mmHg 47%
    13:00 +33°C° 0 mm 5 m/S 758 mmHg 49%
    14:00 +33°C° 0 mm 5 m/S 758 mmHg 53%
    15:00 +32°C° 0 mm 5 m/S 758 mmHg 56%
    16:00 +30°C° 0 mm 5 m/S 757 mmHg 59%
    17:00 +29°C° 0 mm 4 m/S 757 mmHg 63%
    18:00 +29°C° 0 mm 4 m/S 758 mmHg 67%
    19:00 +28°C° 0 mm 3 m/S 758 mmHg 72%
    20:00 +27°C° 0 mm 3 m/S 758 mmHg 74%
    21:00 +27°C° 0 mm 3 m/S 758 mmHg 75%
    22:00 +26°C° 0 mm 3 m/S 759 mmHg 77%
    23:00 +26°C° 0 mm 3 m/S 759 mmHg 77%

    Morgen, 21 Januar, Montag

    Zeit Temperatur Niederschläge Wind Luftdruck Luftfeuchtigkeit
    00:00 +26°C° 0 mm 2 m/S 759 mmHg 77%
    01:00 +26°C° 0 mm 2 m/S 760 mmHg 77%
    02:00 +26°C° 0 mm 2 m/S 759 mmHg 76%
    03:00 +26°C° 0 mm 1 m/S 759 mmHg 76%
    04:00 +27°C° 0 mm 1 m/S 759 mmHg 75%
    05:00 +27°C° 0 mm 1 m/S 759 mmHg 75%
    06:00 +27°C° 0 mm 1 m/S 759 mmHg 74%
    07:00 +27°C° 0 mm 1 m/S 760 mmHg 74%
    08:00 +28°C° 0 mm 1 m/S 760 mmHg 70%
    09:00 +29°C° 0 mm 1 m/S 760 mmHg 66%
    10:00 +30°C° 0 mm 2 m/S 760 mmHg 62%
    11:00 +30°C° 0 mm 3 m/S 760 mmHg 61%
    12:00 +32°C° 0 mm 4 m/S 759 mmHg 59%
    13:00 +32°C° 0 mm 5 m/S 759 mmHg 58%
    14:00 +32°C° 0 mm 5 m/S 758 mmHg 59%
    15:00 +32°C° 0 mm 5 m/S 758 mmHg 59%
    16:00 +30°C° 0 mm 5 m/S 757 mmHg 60%
    17:00 +29°C° 0 mm 4 m/S 757 mmHg 63%
    18:00 +29°C° 0 mm 4 m/S 758 mmHg 66%
    19:00 +28°C° 0 mm 3 m/S 758 mmHg 69%
    20:00 +28°C° 0 mm 3 m/S 758 mmHg 69%
    21:00 +28°C° 0 mm 3 m/S 759 mmHg 70%
    22:00 +27°C° 0 mm 3 m/S 759 mmHg 70%
    23:00 +27°C° 0.1 mm 3 m/S 759 mmHg 71%

    übermorgen, 22 Januar, Dienstag

    Zeit Temperatur Niederschläge Wind Luftdruck Luftfeuchtigkeit
    00:00 +27°C° 0.1 mm 2 m/S 759 mmHg 72%
    01:00 +27°C° 0.1 mm 2 m/S 759 mmHg 72%
    02:00 +27°C° 0.3 mm 2 m/S 758 mmHg 73%
    03:00 +26°C° 0.3 mm 2 m/S 758 mmHg 74%
    04:00 +26°C° 0.3 mm 2 m/S 758 mmHg 75%
    05:00 +26°C° 0.4 mm 1 m/S 758 mmHg 75%
    06:00 +26°C° 0.4 mm 1 m/S 759 mmHg 75%
    07:00 +26°C° 0.4 mm 1 m/S 759 mmHg 75%
    08:00 +27°C° 0.2 mm 1 m/S 759 mmHg 72%
    09:00 +27°C° 0.2 mm 1 m/S 759 mmHg 69%
    10:00 +28°C° 0.2 mm 1 m/S 760 mmHg 66%
    11:00 +29°C° 0 mm 2 m/S 759 mmHg 64%
    12:00 +29°C° 0 mm 3 m/S 759 mmHg 62%
    13:00 +30°C° 0 mm 4 m/S 758 mmHg 60%
    14:00 +30°C° 0 mm 4 m/S 758 mmHg 62%
    15:00 +29°C° 0 mm 5 m/S 757 mmHg 64%
    16:00 +29°C° 0 mm 5 m/S 757 mmHg 65%
    17:00 +28°C° 0 mm 4 m/S 757 mmHg 67%
    18:00 +27°C° 0 mm 4 m/S 758 mmHg 69%
    19:00 +27°C° 0 mm 4 m/S 758 mmHg 71%
    20:00 +27°C° 0 mm 3 m/S 759 mmHg 71%
    21:00 +27°C° 0 mm 3 m/S 759 mmHg 70%
    22:00 +27°C° 0 mm 3 m/S 760 mmHg 70%
    23:00 +26°C° 0 mm 3 m/S 760 mmHg 68%

    23 Januar, Mittwoch

    Zeit Temperatur Niederschläge Wind Luftdruck Luftfeuchtigkeit
    00:00 +26°C° 0 mm 3 m/S 759 mmHg 67%
    01:00 +26°C° 0 mm 3 m/S 759 mmHg 66%
    02:00 +26°C° 0.2 mm 2 m/S 759 mmHg 66%
    03:00 +26°C° 0.2 mm 2 m/S 758 mmHg 65%
    04:00 +26°C° 0.2 mm 1 m/S 758 mmHg 65%
    05:00 +26°C° 0.2 mm 2 m/S 758 mmHg 66%
    06:00 +26°C° 0.2 mm 2 m/S 758 mmHg 67%
    07:00 +26°C° 0.2 mm 3 m/S 759 mmHg 68%
    08:00 +26°C° 0.1 mm 3 m/S 759 mmHg 68%
    09:00 +26°C° 0.1 mm 2 m/S 759 mmHg 68%
    10:00 +26°C° 0.1 mm 2 m/S 759 mmHg 67%
    11:00 +28°C° 0 mm 3 m/S 758 mmHg 60%
    12:00 +29°C° 0 mm 4 m/S 758 mmHg 52%
    13:00 +32°C° 0 mm 4 m/S 757 mmHg 44%
    14:00 +32°C° 0 mm 5 m/S 756 mmHg 45%
    15:00 +32°C° 0 mm 5 m/S 756 mmHg 46%
    16:00 +30°C° 0 mm 6 m/S 755 mmHg 46%
    17:00 +29°C° 0 mm 5 m/S 756 mmHg 51%
    18:00 +28°C° 0 mm 5 m/S 756 mmHg 55%
    19:00 +27°C° 0 mm 5 m/S 756 mmHg 59%
    20:00 +26°C° 0 mm 4 m/S 757 mmHg 61%
    21:00 +26°C° 0 mm 3 m/S 757 mmHg 63%
    22:00 +25°C° 0 mm 3 m/S 758 mmHg 65%
    23:00 +25°C° 0 mm 3 m/S 758 mmHg 66%

    24 Januar, Donnerstag

    Zeit Temperatur Niederschläge Wind Luftdruck Luftfeuchtigkeit
    00:00 +25°C° 0 mm 3 m/S 757 mmHg 67%
    01:00 +25°C° 0 mm 3 m/S 757 mmHg 68%
    02:00 +24°C° 0 mm 3 m/S 757 mmHg 71%
    03:00 +24°C° 0 mm 3 m/S 756 mmHg 73%
    04:00 +22°C° 0 mm 3 m/S 756 mmHg 76%
    05:00 +22°C° 0 mm 3 m/S 756 mmHg 76%
    06:00 +23°C° 0 mm 2 m/S 757 mmHg 76%
    07:00 +23°C° 0 mm 1 m/S 757 mmHg 76%
    08:00 +25°C° 0 mm 2 m/S 757 mmHg 68%
    09:00 +27°C° 0 mm 3 m/S 757 mmHg 61%
    10:00 +28°C° 0 mm 3 m/S 757 mmHg 53%
    11:00 +29°C° 0 mm 4 m/S 756 mmHg 51%
    12:00 +29°C° 0 mm 4 m/S 756 mmHg 50%
    13:00 +30°C° 0 mm 4 m/S 755 mmHg 48%
    14:00 +30°C° 0 mm 4 m/S 754 mmHg 49%
    15:00 +29°C° 0 mm 4 m/S 754 mmHg 50%
    16:00 +29°C° 0 mm 4 m/S 753 mmHg 51%
    17:00 +28°C° 0 mm 4 m/S 754 mmHg 56%
    18:00 +27°C° 0 mm 3 m/S 754 mmHg 61%
    19:00 +26°C° 0 mm 3 m/S 755 mmHg 66%
    20:00 +26°C° 0 mm 3 m/S 756 mmHg 68%
    21:00 +26°C° 0 mm 2 m/S 756 mmHg 70%
    22:00 +25°C° 0 mm 2 m/S 757 mmHg 73%
    23:00 +25°C° 0 mm 2 m/S 757 mmHg 74%

    25 Januar, Freitag

    Zeit Temperatur Niederschläge Wind Luftdruck Luftfeuchtigkeit
    00:00 +25°C° 0 mm 2 m/S 757 mmHg 76%
    01:00 +25°C° 0 mm 2 m/S 757 mmHg 78%
    02:00 +24°C° 0 mm 2 m/S 756 mmHg 79%
    03:00 +24°C° 0 mm 2 m/S 756 mmHg 80%
    04:00 +24°C° 0 mm 1 m/S 756 mmHg 81%
    05:00 +24°C° 0 mm 1 m/S 756 mmHg 81%
    06:00 +24°C° 0 mm 1 m/S 757 mmHg 82%
    07:00 +24°C° 0 mm 2 m/S 757 mmHg 82%
    08:00 +25°C° 0 mm 1 m/S 757 mmHg 74%
    09:00 +27°C° 0 mm 1 m/S 757 mmHg 67%
    10:00 +28°C° 0 mm 1 m/S 757 mmHg 60%
    11:00 +29°C° 0 mm 2 m/S 757 mmHg 56%
    12:00 +30°C° 0 mm 4 m/S 756 mmHg 53%
    13:00 +33°C° 0 mm 5 m/S 755 mmHg 50%
    14:00 +32°C° 0 mm 5 m/S 755 mmHg 51%
    15:00 +30°C° 0 mm 5 m/S 755 mmHg 53%
    16:00 +30°C° 0 mm 5 m/S 754 mmHg 55%
    17:00 +29°C° 0 mm 4 m/S 755 mmHg 58%
    18:00 +28°C° 0 mm 3 m/S 756 mmHg 62%
    19:00 +27°C° 0 mm 3 m/S 756 mmHg 66%
    20:00 +27°C° 0 mm 2 m/S 757 mmHg 67%
    21:00 +27°C° 0 mm 2 m/S 758 mmHg 68%
    22:00 +26°C° 0 mm 1 m/S 758 mmHg 69%
    23:00 +26°C° 0 mm 2 m/S 758 mmHg 70%
    Mehr zeigen